CW5346 Weather Reports


time (UTC)temp
C
wind
direction
speed
KPH
gust
KPH
rain 1hr
cm
rain 24hr
cm
rain mn
cm
humidity
%
barometer
mb
20260509182625 15 242 3.2 8.0 0.03 0.03 0.03 83 1011.6
20260509181604 15 174 1.6 9.7 0.00 0.00 0.00 82 1011.9
20260509180603 16 257 3.2 20.9 0.00 0.00 0.00 78 1011.9
20260509175604 16 262 6.4 17.7 0.00 0.00 0.00 73 1011.3
20260509174603 17 267 6.4 14.5 0.00 0.00 0.00 70 1011.0
20260509173604 17 224 6.4 16.1 0.00 0.00 0.00 71 1010.9
20260509172603 16 236 3.2 19.3 0.00 0.00 0.00 70 1010.8
20260509171603 17 241 4.8 12.9 0.00 0.00 0.00 69 1010.8
20260509170603 16 207 1.6 17.7 0.00 0.00 0.00 71 1010.7
20260509165603 16 223 1.6 12.9 0.00 0.00 0.00 72 1010.7
20260509164603 16 224 1.6 12.9 0.00 0.00 0.00 75 1011.0
20260509163625 16 220 6.4 14.5 0.00 0.00 0.00 74 1011.2
20260509162604 16 219 0.0 11.3 0.00 0.00 0.00 77 1011.0
20260509161604 16 221 1.6 11.3 0.00 0.00 0.00 76 1011.3
20260509160624 16 236 0.0 9.7 0.00 0.00 0.00 77 1011.6
20260509155604 16 239 1.6 12.9 0.00 0.00 0.00 78 1011.6
20260509154604 15 254 0.0 12.9 0.00 0.00 0.00 79 1011.8
20260509153645 15 259 0.0 9.7 0.00 0.00 0.00 81 1011.6
20260509152603 15 260 0.0 11.3 0.00 0.00 0.00 81 1012.0
20260509151625 14 264 0.0 0.0 0.00 0.00 0.00 83 1012.1
20260509150603 14 264 0.0 0.0 0.00 0.00 0.00 84 1012.0
20260509145624 14 263 0.0 11.3 0.00 0.00 0.00 82 1012.1
20260509144604 14 269 0.0 6.4 0.00 0.00 0.00 83 1012.2
20260509143603 14 275 0.0 0.0 0.00 0.00 0.00 86 1012.0
20260509142604 13 275 0.0 0.0 0.00 0.00 0.00 87 1012.0
20260509141625 13 275 0.0 0.0 0.00 0.00 0.00 89 1012.0
20260509140603 13 275 0.0 0.0 0.00 0.00 0.00 91 1011.9
20260509135603 12 275 0.0 0.0 0.00 0.00 0.00 91 1012.1
20260509133625 11 275 0.0 0.0 0.00 0.00 0.00 92 1012.0
20260509132603 11 244 0.0 0.0 0.00 0.00 0.00 93 1012.2
20260509131603 11 244 0.0 0.0 0.00 0.00 0.00 93 1012.4
20260509130604 11 244 0.0 0.0 0.00 0.00 0.00 94 1012.6
20260509125603 11 246 0.0 0.0 0.00 0.00 0.00 94 1012.8
20260509123603 10 246 0.0 0.0 0.00 0.00 0.00 94 1012.7
20260509122624 10 246 0.0 0.0 0.00 0.00 0.00 95 1012.8
20260509121603 10 246 0.0 0.0 0.00 0.00 0.00 95 1012.9
20260509120603 10 246 0.0 0.0 0.00 0.00 0.00 95 1012.7
20260509115603 10 246 0.0 0.0 0.00 0.00 0.00 95 1012.6
20260509114604 10 246 0.0 0.0 0.00 0.00 0.00 95 1012.1
20260509113603 10 246 0.0 0.0 0.00 0.00 0.00 95 1012.4
20260509112603 10 246 0.0 0.0 0.00 0.00 0.00 95 1012.7
20260509111603 9 246 0.0 0.0 0.00 0.00 0.00 95 1013.0
20260509110603 9 246 0.0 0.0 0.00 0.00 0.00 95 1012.9
20260509105604 9 246 0.0 0.0 0.00 0.00 0.00 95 1012.8
20260509104646 9 246 0.0 0.0 0.00 0.00 0.00 95 1012.4
20260509103603 9 246 0.0 0.0 0.00 0.00 0.00 95 1012.6
20260509102603 9 246 0.0 0.0 0.00 0.00 0.00 95 1012.4
20260509101625 9 246 0.0 0.0 0.00 0.00 0.00 95 1012.2
20260509100603 9 246 0.0 0.0 0.00 0.00 0.00 95 1012.3
20260509095645 9 246 0.0 0.0 0.00 0.00 0.00 95 1012.3
20260509094604 9 246 0.0 0.0 0.00 0.00 0.00 95 1012.3
20260509093603 9 246 0.0 0.0 0.00 0.00 0.00 95 1012.3
20260509092604 9 246 0.0 0.0 0.00 0.00 0.00 95 1012.4
20260509091603 9 246 0.0 0.0 0.00 0.00 0.00 94 1012.4
20260509090604 9 246 0.0 0.0 0.00 0.00 0.00 95 1012.5
20260509085603 9 246 0.0 0.0 0.00 0.00 0.00 94 1012.4
20260509084624 9 246 0.0 0.0 0.00 0.00 0.00 94 1012.4
20260509083604 9 246 0.0 0.0 0.00 0.00 0.00 94 1012.5
20260509082604 9 246 0.0 0.0 0.00 0.00 0.00 94 1012.7
20260509081604 9 246 0.0 0.0 0.00 0.00 0.00 94 1012.7
20260509080604 9 246 0.0 0.0 0.00 0.00 0.00 94 1012.6
20260509075604 9 246 0.0 0.0 0.00 0.00 0.00 94 1012.7
20260509074603 9 246 0.0 0.0 0.00 0.00 0.00 94 1012.8
20260509073603 9 246 0.0 0.0 0.00 0.00 0.00 94 1012.8
20260509072625 9 246 0.0 0.0 0.00 0.00 0.00 94 1012.7
20260509070604 9 246 0.0 0.0 0.00 0.00 0.00 93 1012.3
20260509065603 9 246 0.0 0.0 0.00 0.00 0.00 93 1012.2
20260509064603 9 246 0.0 0.0 0.00 0.03 0.00 93 1012.3
20260509063603 9 246 0.0 0.0 0.00 0.03 0.00 93 1012.4
20260509062603 9 246 0.0 0.0 0.00 0.05 0.00 93 1012.8
20260509061603 9 246 0.0 0.0 0.00 0.05 0.00 93 1012.8
20260509060603 9 246 0.0 0.0 0.00 0.08 0.00 92 1013.1
20260509055624 9 246 0.0 0.0 0.00 0.08 0.00 92 1012.9
20260509054603 9 246 0.0 0.0 0.00 0.10 0.00 92 1013.1
20260509053604 9 246 0.0 0.0 0.00 0.10 0.00 91 1013.3
20260509052603 9 246 0.0 0.0 0.00 0.10 0.00 91 1013.4
20260509051603 9 246 0.0 0.0 0.00 0.10 0.00 90 1013.3
20260509050604 9 246 0.0 0.0 0.00 0.10 0.00 90 1013.2
20260509045603 9 246 0.0 0.0 0.00 0.10 0.00 90 1013.4
20260509044603 9 246 0.0 0.0 0.00 0.10 0.00 89 1013.3
20260509043624 9 246 0.0 0.0 0.00 0.10 0.00 89 1013.3
20260509042603 9 246 0.0 0.0 0.00 0.10 0.00 89 1013.2
20260509041603 10 246 0.0 0.0 0.00 0.10 0.00 88 1013.1
20260509040603 10 246 0.0 0.0 0.00 0.10 0.00 87 1013.2
20260509035604 10 246 0.0 0.0 0.00 0.10 0.10 87 1013.4
20260509034603 10 246 0.0 0.0 0.00 0.10 0.10 87 1013.2
20260509033603 10 246 0.0 0.0 0.00 0.10 0.10 87 1013.3
20260509032625 10 246 0.0 0.0 0.00 0.10 0.10 87 1013.3
20260509031602 10 246 0.0 0.0 0.00 0.10 0.10 86 1013.5
20260509030604 10 246 0.0 0.0 0.00 0.10 0.10 86 1013.6
20260509025604 10 246 0.0 0.0 0.00 0.10 0.10 86 1013.5
20260509024603 10 246 0.0 0.0 0.00 0.10 0.10 85 1013.3
20260509023603 10 246 0.0 0.0 0.00 0.10 0.10 85 1013.5
20260509022625 10 246 0.0 0.0 0.00 0.10 0.10 85 1013.3
20260509021603 10 246 0.0 0.0 0.00 0.10 0.10 84 1013.2
20260509020604 10 246 0.0 0.0 0.00 0.10 0.10 84 1013.1
20260509015624 10 246 0.0 0.0 0.00 0.10 0.10 84 1012.9
20260509014603 10 246 0.0 0.0 0.00 0.10 0.10 83 1012.8
20260509013604 10 246 0.0 0.0 0.00 0.10 0.10 82 1012.5
20260509012603 11 246 0.0 0.0 0.00 0.10 0.10 82 1012.5
20260509011624 11 246 0.0 0.0 0.00 0.10 0.10 81 1012.4
20260509010603 11 246 0.0 0.0 0.00 0.10 0.10 81 1012.2
20260509005603 11 246 0.0 0.0 0.00 0.10 0.10 81 1012.1
20260509004603 11 246 0.0 0.0 0.00 0.10 0.10 80 1011.8
20260509003604 11 246 0.0 0.0 0.00 0.10 0.10 80 1011.8
20260509002603 11 246 0.0 0.0 0.00 0.10 0.10 78 1011.6
20260509001603 11 246 0.0 0.0 0.00 0.10 0.10 78 1011.6
20260509000603 12 246 0.0 0.0 0.00 0.10 0.10 77 1011.7
20260508235603 12 246 0.0 0.0 0.00 0.10 0.10 75 1011.7
20260508234603 12 246 0.0 0.0 0.00 0.10 0.10 74 1011.8
20260508233624 12 246 0.0 0.0 0.00 0.10 0.10 73 1011.8
20260508232603 13 246 0.0 0.0 0.00 0.10 0.10 70 1011.4
20260508231602 13 246 0.0 0.0 0.00 0.10 0.10 70 1011.5
20260508230603 13 246 0.0 0.0 0.00 0.10 0.10 68 1011.5
20260508225603 13 246 0.0 0.0 0.00 0.10 0.10 66 1011.4
20260508224604 13 246 0.0 0.0 0.00 0.10 0.10 65 1011.3
20260508223603 13 246 0.0 0.0 0.00 0.10 0.10 65 1011.4
20260508222624 13 246 0.0 1.6 0.00 0.10 0.10 65 1011.3
20260508221603 13 246 0.0 0.0 0.00 0.10 0.10 63 1011.4
20260508220603 13 246 0.0 6.4 0.00 0.10 0.10 66 1011.4
20260508215603 13 246 0.0 0.0 0.00 0.10 0.10 65 1011.3
20260508214603 14 246 0.0 4.8 0.00 0.10 0.10 63 1011.3
20260508213604 14 246 0.0 4.8 0.00 0.10 0.10 64 1011.4
20260508212603 13 245 0.0 6.4 0.00 0.10 0.10 64 1011.3
20260508211603 13 245 0.0 11.3 0.00 0.10 0.10 67 1011.4
20260508210632 13 246 3.2 12.9 0.00 0.10 0.10 64 1011.8
20260508205603 13 250 0.0 12.9 0.00 0.10 0.10 62 1011.9
20260508204604 13 263 0.0 11.3 0.00 0.10 0.10 62 1011.8
20260508203603 13 355 0.0 0.0 0.00 0.10 0.10 66 1011.7
20260508202603 13 345 0.0 0.0 0.00 0.10 0.10 67 1011.7
20260508201603 13 345 0.0 4.8 0.00 0.10 0.10 65 1011.4
20260508200603 13 348 1.6 9.7 0.00 0.10 0.10 66 1011.5
20260508195604 13 350 0.0 6.4 0.00 0.10 0.10 66 1011.6
20260508194603 13 359 1.6 14.5 0.00 0.10 0.10 64 1011.8
20260508193602 13 351 6.4 17.7 0.00 0.10 0.10 63 1011.6
20260508192603 13 21 6.4 17.7 0.00 0.10 0.10 63 1011.9
20260508191603 13 337 1.6 12.9 0.00 0.10 0.10 66 1012.0
20260508190624 13 325 4.8 12.9 0.00 0.10 0.10 66 1012.0
20260508185603 12 305 1.6 12.9 0.00 0.10 0.10 67 1012.2
20260508184603 12 283 3.2 9.7 0.00 0.10 0.10 66 1012.4
20260508183603 13 276 0.0 19.3 0.00 0.10 0.10 63 1012.2